Time,TemperatureF,DewpointF,PressureIn,WindDirection,WindDirectionDegrees,WindSpeedMPH,WindSpeedGustMPH,Humidity,HourlyPrecipIn,Conditions,Clouds,dailyrainin,SoftwareType,DateUTC
2013-04-03 00:00:00,28.9,16.8,30.23,SSW,193,2.0,3.0,60,0.00,CLR,,0.00,WeatherDisplay:10.37,2013-04-03 04:00:00,
2013-04-03 00:15:00,28.9,16.8,30.23,SW,214,2.0,3.0,60,0.00,CLR,,0.00,WeatherDisplay:10.37,2013-04-03 04:15:00,
2013-04-03 00:30:00,28.6,16.4,30.22,SSW,194,2.0,3.0,60,0.00,CLR,,0.00,WeatherDisplay:10.37,2013-04-03 04:30:00,
2013-04-03 00:45:00,28.5,16.8,30.22,SSW,211,2.0,3.0,61,0.00,CLR,,0.00,WeatherDisplay:10.37,2013-04-03 04:45:00,
2013-04-03 01:00:00,28.2,16.5,30.21,SSW,207,2.0,3.0,61,0.00,CLR,,0.00,WeatherDisplay:10.37,2013-04-03 05:00:00,
2013-04-03 01:15:00,28.2,16.9,30.21,South,191,2.0,3.0,62,0.00,CLR,,0.00,WeatherDisplay:10.37,2013-04-03 05:15:00,
2013-04-03 01:30:00,27.9,16.5,30.22,SSW,194,2.0,3.0,62,0.00,CLR,,0.00,WeatherDisplay:10.37,2013-04-03 05:30:00,
2013-04-03 01:45:00,27.7,16.7,30.21,SW,233,2.0,3.0,63,0.00,CLR,,0.00,WeatherDisplay:10.37,2013-04-03 05:45:00,
2013-04-03 02:00:00,27.5,16.9,30.22,WSW,243,3.0,4.0,64,0.00,CLR,,0.00,WeatherDisplay:10.37,2013-04-03 06:00:00,
2013-04-03 02:15:00,27.5,17.3,30.22,WSW,238,3.0,4.0,65,0.00,CLR,,0.00,WeatherDisplay:10.37,2013-04-03 06:15:00,
2013-04-03 02:30:00,27.1,17.3,30.22,WSW,243,3.0,5.0,66,0.00,CLR,,0.00,WeatherDisplay:10.37,2013-04-03 06:30:00,
2013-04-03 02:45:00,27.1,17.6,30.22,SW,221,3.0,4.0,67,0.00,CLR,,0.00,WeatherDisplay:10.37,2013-04-03 06:45:00,
2013-04-03 03:00:00,27.1,18.0,30.22,WSW,240,3.0,4.0,68,0.00,CLR,,0.00,WeatherDisplay:10.37,2013-04-03 07:00:00,
2013-04-03 03:15:00,27.1,18.3,30.22,WSW,248,3.0,4.0,69,0.00,CLR,,0.00,WeatherDisplay:10.37,2013-04-03 07:15:00,
2013-04-03 03:30:00,27.1,18.6,30.22,WSW,243,3.0,5.0,70,0.00,CLR,,0.00,WeatherDisplay:10.37,2013-04-03 07:30:00,
2013-04-03 03:45:00,27.1,18.6,30.22,West,261,1.0,3.0,70,0.00,CLR,,0.00,WeatherDisplay:10.37,2013-04-03 07:45:00,
2013-04-03 04:00:00,27.1,19.0,30.22,NW,321,0.0,2.0,71,0.00,CLR,,0.00,WeatherDisplay:10.37,2013-04-03 08:00:00,
2013-04-03 04:15:00,26.8,18.6,30.22,NW,317,1.0,2.0,71,0.00,CLR,,0.00,WeatherDisplay:10.37,2013-04-03 08:15:00,
2013-04-03 04:30:00,26.4,18.6,30.22,NW,316,0.0,2.0,72,0.00,CLR,,0.00,WeatherDisplay:10.37,2013-04-03 08:30:00,
2013-04-03 04:45:00,26.4,18.6,30.23,NW,311,1.0,3.0,72,0.00,CLR,,0.00,WeatherDisplay:10.37,2013-04-03 08:45:00,
2013-04-03 05:00:00,26.1,18.6,30.25,NNW,338,3.0,5.0,73,0.00,CLR,,0.00,WeatherDisplay:10.37,2013-04-03 09:00:00,
2013-04-03 05:15:00,26.2,19.1,30.25,North,354,2.0,7.0,74,0.00,CLR,,0.00,WeatherDisplay:10.37,2013-04-03 09:15:00,
2013-04-03 05:30:00,26.2,18.8,30.26,North,6,2.0,5.0,73,0.00,CLR,,0.00,WeatherDisplay:10.37,2013-04-03 09:30:00,
2013-04-03 05:45:00,26.1,18.6,30.27,North,360,1.0,2.0,73,0.00,CLR,,0.00,WeatherDisplay:10.37,2013-04-03 09:45:00,
2013-04-03 06:00:00,25.9,18.1,30.28,North,8,0.0,0.0,72,0.00,CLR,,0.00,WeatherDisplay:10.37,2013-04-03 10:00:00,
2013-04-03 06:15:00,25.5,17.7,30.28,NW,326,0.0,0.0,72,0.00,CLR,,0.00,WeatherDisplay:10.37,2013-04-03 10:15:00,
2013-04-03 06:30:00,25.0,17.2,30.28,NW,317,0.0,0.0,72,0.00,CLR,,0.00,WeatherDisplay:10.37,2013-04-03 10:30:00,
2013-04-03 06:45:00,24.6,16.9,30.29,East,93,0.0,0.0,72,0.00,CLR,,0.00,WeatherDisplay:10.37,2013-04-03 10:45:00,
2013-04-03 07:00:00,24.6,17.2,30.30,South,189,0.0,2.0,73,0.00,CLR,,0.00,WeatherDisplay:10.37,2013-04-03 11:00:00,
2013-04-03 07:15:00,24.1,17.0,30.30,South,169,0.0,2.0,74,0.00,CLR,,0.00,WeatherDisplay:10.37,2013-04-03 11:15:00,
2013-04-03 07:30:00,23.7,16.6,30.30,SSE,157,1.0,2.0,74,0.00,CLR,,0.00,WeatherDisplay:10.37,2013-04-03 11:30:00,
2013-04-03 07:45:00,23.5,16.8,30.30,South,179,1.0,3.0,75,0.00,CLR,,0.00,WeatherDisplay:10.37,2013-04-03 11:45:00,
2013-04-03 08:00:00,23.2,16.7,30.32,SSE,162,1.0,2.0,76,0.00,CLR,,0.00,WeatherDisplay:10.37,2013-04-03 12:00:00,
2013-04-03 08:15:00,23.4,17.2,30.32,East,91,0.0,2.0,77,0.00,CLR,,0.00,WeatherDisplay:10.37,2013-04-03 12:15:00,
2013-04-03 08:30:00,23.9,18.0,30.32,SSW,207,0.0,2.0,78,0.00,CLR,,0.00,WeatherDisplay:10.37,2013-04-03 12:30:00,
2013-04-03 08:45:00,26.1,20.4,30.33,South,191,2.0,3.0,79,0.00,CLR,,0.00,WeatherDisplay:10.37,2013-04-03 12:45:00,
2013-04-03 09:00:00,28.6,22.3,30.34,SW,234,2.0,4.0,77,0.00,CLR,,0.00,WeatherDisplay:10.37,2013-04-03 13:00:00,
2013-04-03 09:15:00,30.2,22.3,30.34,West,259,3.0,3.0,72,0.00,CLR,,0.00,WeatherDisplay:10.37,2013-04-03 13:15:00,
2013-04-03 09:30:00,31.8,22.5,30.34,West,278,1.0,3.0,68,0.00,CLR,,0.00,WeatherDisplay:10.37,2013-04-03 13:30:00,
2013-04-03 09:45:00,33.3,22.0,30.35,NNW,346,3.0,7.0,63,0.00,CLR,,0.00,WeatherDisplay:10.37,2013-04-03 13:45:00,
2013-04-03 10:00:00,34.7,21.0,30.37,NNW,344,6.0,10.0,57,0.00,CLR,,0.00,WeatherDisplay:10.37,2013-04-03 14:00:00,
2013-04-03 10:15:00,35.4,19.5,30.37,North,1,6.0,8.0,52,0.00,FEW,,0.00,WeatherDisplay:10.37,2013-04-03 14:15:00,
2013-04-03 10:30:00,36.1,19.3,30.36,NNW,328,6.0,12.0,50,0.00,FEW,,0.00,WeatherDisplay:10.37,2013-04-03 14:30:00,
2013-04-03 10:45:00,36.1,18.8,30.38,WNW,298,7.0,10.0,49,0.00,FEW,,0.00,WeatherDisplay:10.37,2013-04-03 14:45:00,
2013-04-03 11:00:00,36.5,18.6,30.38,NNW,336,6.0,10.0,48,0.00,FEW,,0.00,WeatherDisplay:10.37,2013-04-03 15:00:00,
2013-04-03 11:15:00,37.5,18.0,30.38,WNW,283,7.0,10.0,45,0.00,FEW,,0.00,WeatherDisplay:10.37,2013-04-03 15:15:00,
2013-04-03 11:30:00,37.2,17.3,30.38,NW,315,7.0,10.0,44,0.00,FEW,,0.00,WeatherDisplay:10.37,2013-04-03 15:30:00,
2013-04-03 11:45:00,38.3,18.3,30.38,West,272,6.0,10.0,44,0.00,FEW,,0.00,WeatherDisplay:10.37,2013-04-03 15:45:00,
2013-04-03 12:00:00,38.3,15.5,30.39,NW,321,7.0,10.0,39,0.00,FEW,,0.00,WeatherDisplay:10.37,2013-04-03 16:00:00,
2013-04-03 12:15:00,38.3,16.6,30.39,NNW,330,6.0,6.0,41,0.00,FEW,,0.00,WeatherDisplay:10.37,2013-04-03 16:15:00,
2013-04-03 12:30:00,38.7,17.0,30.40,NW,305,7.0,12.0,41,0.00,FEW,,0.00,WeatherDisplay:10.37,2013-04-03 16:30:00,
2013-04-03 12:45:00,38.8,16.5,30.40,West,278,7.0,15.0,40,0.00,FEW,,0.00,WeatherDisplay:10.37,2013-04-03 16:45:00,
2013-04-03 13:00:00,39.2,16.3,30.39,NW,319,6.0,9.0,39,0.00,FEW,,0.00,WeatherDisplay:10.37,2013-04-03 17:00:00,
2013-04-03 13:15:00,39.9,17.5,30.39,North,355,6.0,8.0,40,0.00,FEW,,0.00,WeatherDisplay:10.37,2013-04-03 17:15:00,
2013-04-03 13:30:00,39.9,16.9,30.38,NW,325,6.0,9.0,39,0.00,FEW,,0.00,WeatherDisplay:10.37,2013-04-03 17:30:00,
2013-04-03 13:45:00,40.5,17.4,30.37,WNW,295,6.0,16.0,39,0.00,FEW,,0.00,WeatherDisplay:10.37,2013-04-03 17:45:00,
2013-04-03 14:00:00,40.5,17.4,30.37,NE,46,5.0,13.0,39,0.00,FEW,,0.00,WeatherDisplay:10.37,2013-04-03 18:00:00,
2013-04-03 14:15:00,40.7,17.6,30.37,NW,306,7.0,12.0,39,0.00,FEW,,0.00,WeatherDisplay:10.37,2013-04-03 18:15:00,
2013-04-03 14:30:00,41.2,17.5,30.35,North,3,6.0,10.0,38,0.00,FEW,,0.00,WeatherDisplay:10.37,2013-04-03 18:30:00,
2013-04-03 14:45:00,41.1,16.8,30.36,NNE,28,3.0,9.0,37,0.00,FEW,,0.00,WeatherDisplay:10.37,2013-04-03 18:45:00,
2013-04-03 15:00:00,41.9,16.9,30.35,North,355,5.0,9.0,36,0.00,FEW,,0.00,WeatherDisplay:10.37,2013-04-03 19:00:00,
2013-04-03 15:15:00,41.6,16.6,30.35,WNW,287,6.0,10.0,36,0.00,FEW,,0.00,WeatherDisplay:10.37,2013-04-03 19:15:00,
2013-04-03 15:30:00,42.1,17.0,30.34,NNE,26,5.0,8.0,36,0.00,FEW,,0.00,WeatherDisplay:10.37,2013-04-03 19:30:00,
2013-04-03 15:45:00,42.8,17.0,30.32,WNW,291,3.0,6.0,35,0.00,FEW,,0.00,WeatherDisplay:10.37,2013-04-03 19:45:00,
2013-04-03 16:00:00,43.3,17.5,30.32,West,271,3.0,6.0,35,0.00,FEW,,0.00,WeatherDisplay:10.37,2013-04-03 20:00:00,
2013-04-03 16:15:00,43.4,17.5,30.33,WNW,295,3.0,8.0,35,0.00,FEW,,0.00,WeatherDisplay:10.37,2013-04-03 20:15:00,
2013-04-03 16:30:00,43.3,17.5,30.33,SSE,163,2.0,8.0,35,0.00,FEW,,0.00,WeatherDisplay:10.37,2013-04-03 20:30:00,
2013-04-03 16:45:00,43.3,17.5,30.32,NE,52,2.0,6.0,35,0.00,FEW,,0.00,WeatherDisplay:10.37,2013-04-03 20:45:00,
2013-04-03 17:00:00,43.5,17.6,30.32,South,170,2.0,5.0,35,0.00,FEW,,0.00,WeatherDisplay:10.37,2013-04-03 21:00:00,
2013-04-03 17:15:00,43.3,16.8,30.32,SSE,158,3.0,6.0,34,0.00,FEW,,0.00,WeatherDisplay:10.37,2013-04-03 21:15:00,
2013-04-03 17:30:00,44.1,17.4,30.32,SE,130,2.0,6.0,34,0.00,FEW,,0.00,WeatherDisplay:10.37,2013-04-03 21:30:00,
2013-04-03 17:45:00,44.1,17.5,30.31,NNW,348,1.0,3.0,34,0.00,FEW,,0.00,WeatherDisplay:10.37,2013-04-03 21:45:00,
2013-04-03 18:00:00,44.6,17.9,30.31,SSW,209,6.0,9.0,34,0.00,FEW,,0.00,WeatherDisplay:10.37,2013-04-03 22:00:00,
2013-04-03 18:15:00,44.6,17.2,30.31,SW,228,2.0,6.0,33,0.00,FEW,,0.00,WeatherDisplay:10.37,2013-04-03 22:15:00,
2013-04-03 18:30:00,44.8,18.1,30.31,SW,228,2.0,4.0,34,0.00,FEW,,0.00,WeatherDisplay:10.37,2013-04-03 22:30:00,
2013-04-03 18:45:00,44.7,19.4,30.31,SW,231,8.0,17.0,36,0.00,FEW,,0.00,WeatherDisplay:10.37,2013-04-03 22:45:00,
2013-04-03 19:00:00,43.7,20.9,30.32,West,266,9.0,15.0,40,0.00,FEW,,0.00,WeatherDisplay:10.37,2013-04-03 23:00:00,
2013-04-03 19:15:00,42.7,20.6,30.32,WSW,253,8.0,12.0,41,0.00,FEW,,0.00,WeatherDisplay:10.37,2013-04-03 23:15:00,
2013-04-03 19:30:00,41.5,20.7,30.31,West,278,8.0,12.0,43,0.00,FEW,,0.00,WeatherDisplay:10.37,2013-04-03 23:30:00,
2013-04-03 19:45:00,40.7,20.5,30.30,WNW,287,7.0,10.0,44,0.00,FEW,,0.00,WeatherDisplay:10.37,2013-04-03 23:45:00,
2013-04-03 20:00:00,39.7,20.6,30.32,West,269,6.0,10.0,46,0.00,FEW,,0.00,WeatherDisplay:10.37,2013-04-04 00:00:00,
2013-04-03 20:15:00,38.7,20.6,30.32,WNW,302,5.0,8.0,48,0.00,SCT,,0.00,WeatherDisplay:10.37,2013-04-04 00:15:00,
2013-04-03 20:30:00,37.8,20.8,30.31,WSW,252,3.0,5.0,50,0.00,SCT,,0.00,WeatherDisplay:10.37,2013-04-04 00:30:00,
2013-04-03 20:45:00,37.0,20.6,30.30,WSW,240,2.0,4.0,51,0.00,SCT,,0.00,WeatherDisplay:10.37,2013-04-04 00:45:00,
2013-04-03 21:00:00,36.3,20.4,30.29,WSW,243,2.0,4.0,52,0.00,SCT,,0.00,WeatherDisplay:10.37,2013-04-04 01:00:00,
2013-04-03 21:15:00,36.1,20.6,30.29,WSW,248,3.0,4.0,53,0.00,FEW,,0.00,WeatherDisplay:10.37,2013-04-04 01:15:00,
2013-04-03 21:30:00,35.4,20.4,30.30,WSW,239,3.0,5.0,54,0.00,FEW,,0.00,WeatherDisplay:10.37,2013-04-04 01:30:00,
2013-04-03 21:45:00,34.9,20.3,30.30,SW,230,2.0,4.0,55,0.00,FEW,,0.00,WeatherDisplay:10.37,2013-04-04 01:45:00,
2013-04-03 22:00:00,34.2,19.7,30.31,WSW,243,3.0,6.0,55,0.00,FEW,,0.00,WeatherDisplay:10.37,2013-04-04 02:00:00,
2013-04-03 22:15:00,33.5,19.4,30.31,WSW,243,3.0,5.0,56,0.00,FEW,,0.00,WeatherDisplay:10.37,2013-04-04 02:15:00,
2013-04-03 22:30:00,33.3,19.7,30.31,SW,221,2.0,3.0,57,0.00,FEW,,0.00,WeatherDisplay:10.37,2013-04-04 02:30:00,
2013-04-03 22:45:00,32.5,19.4,30.32,SSW,212,2.0,3.0,58,0.00,FEW,,0.00,WeatherDisplay:10.37,2013-04-04 02:45:00,
2013-04-03 23:00:00,31.8,19.1,30.30,South,184,1.0,3.0,59,0.00,FEW,,0.00,WeatherDisplay:10.37,2013-04-04 03:00:00,
2013-04-03 23:15:00,31.5,19.2,30.30,SW,225,2.0,3.0,60,0.00,FEW,,0.00,WeatherDisplay:10.37,2013-04-04 03:15:00,
2013-04-03 23:30:00,31.1,18.8,30.31,WSW,252,1.0,2.0,60,0.00,FEW,,0.00,WeatherDisplay:10.37,2013-04-04 03:30:00,
2013-04-03 23:45:00,31.1,19.2,30.30,SW,229,0.0,0.0,61,0.00,FEW,,0.00,WeatherDisplay:10.37,2013-04-04 03:45:00,